Tracking 17138 objects as of 7-July-2015
HD Live streaming from Space Station

GLOBALSTAR M059

Track GLOBALSTAR M059 now!
10-day predictions
GLOBALSTAR M059 is classified as:


NORAD ID: 25944
Int'l Code: 1999-058B
Perigee: 1,420.0 km
Apogee: 1,421.5 km
Inclination: 52.0 °
Period: 114.1 minutes
Semi major axis: 7791 km
RCS: 2.6566 m2 (large)
Launch date: October 18, 1999
Source: Globalstar (GLOB)
Your satellite tracking list
Your tracking list is empty





NASA's NSSDC Master Catalog

Two Line Element Set (TLE):
1 25944U 99058B   15187.14740633 -.00000096  00000-0  42622-4 0  9991
2 25944 052.0051 043.4872 0000985 012.2632 137.9940 12.62265252724947

Source of the keplerian elements: AFSPC

N2YO: 314